FENGYUN 2D DEB

Satellite information

Favourite Embed

Satellite Type and Status

DEBRISIN ORBIT

Key statistics

Satellite FENGYUN 2D DEB at a glance.

Uptime

6904

Days in orbit

Revolutions

≈ 1.0

Per day

Orbit

OTHER

Other

Inclination

11.3

Latest

Satellite identification and parameters

Extended collection of information and parameters for FENGYUN 2D DEB.

Object identification

Identified? True

Debris? True

Object name: FENGYUN 2D DEB

International designator: 2006-053D

Object number (NORAD): 33458

Object ID (CCSDS): 33458

Country: PEOPLES REPUBLIC OF CHINA (PRC)

Current information (Y/N): Y

RCS size: MEDIUM

Orbital parameters

Period: 1436.468 minutes

Inclination: 11.2507 deg

SMA: 42172.004 km

Apoapsis: 35870.082 km

Periapsis: 35717.656 km

RAAN: 39.0444 deg

Eccentricy: 0.00180719

Argument of periapsis: 20.9536 deg

Mean anomaly: 335.5174 deg

Mean motion: 1.0024585 rev/day

Mean motion (dot): -0.00000109 rev/day2

B* drag term: 0.0 1/REarth

Two-line elements (TLE)

Creation date: Nov. 1, 2025, 7:40 p.m.

Reference frame: TEME

Reference center: EARTH

Epoch: Oct. 31, 2025, 6:28 p.m. UTC

TLE line 0: 0 FENGYUN 2D DEB

TLE line 1: 1 33458U 06053D 25304.76984387 -.00000109 00000-0 00000-0 0 9994

TLE line 2: 2 33458 11.2507 39.0444 0018072 20.9536 335.5174 1.00245850 63088

Live tracking on map

Real-time ground track for satellite FENGYUN 2D DEB.

In-orbit conjunctions

A list of the most updated potential collisions computed for object FENGYUN 2D DEB.

Target Orbit TCA Probability of collision Miss distance Type
COSMOS 2379 OTHER 2025-10-10 02:36:31 TBA 2815.0 (m) PAYLOAD
SL-12 R/B(2) OTHER 2024-12-22 22:27:09 TBA 4224.0 (m) ROCKET BODY
SYNCOM 2 (A 26) OTHER 2024-11-29 09:47:29 TBA 177.0 (m) PAYLOAD
LUCH 1 OTHER 2024-10-30 01:50:01 TBA 4966.0 (m) PAYLOAD

Associated space launch

Chinese geostationary meteorological satellite

FENGYUN 2D DEB was lifted into orbit during the mission ‘Long March 3A | Feng Yun 2D’, on board a Long March 3A space rocket.

The launch took place on Dec. 8, 2006, 12:53 a.m. from Launch Complex 2 (LC-2).

For more information about the launch, click the button.

Launch to space Long March 3A | Feng Yun 2D
Long March 3A | Feng Yun 2D

Agency: N/A

Status: Launch Successful

Launch date: Dec. 8, 2006, 12:53 a.m. UTC

Rocket: Long March 3A

Launch pad: Launch Complex 2 (LC-2)

Location: Xichang Satellite Launch Center, People's Republic of China

...

Latest news about this satellite

There are no fresh news available about this satellite. Check back as we update our databases every day.


Newsletter sign-up

Weekly statistics, charts and insights to help you stay on top of the space industry.